Regional Weather Roundup
Issued by NWS Charleston, WV

Home | Current Version | Previous Version | Graphics & Text | Print | Product List | Glossary On
Versions: 1 2 3 4 5 6 7 8 9 10 11 12 13 14 15 16 17 18 19 20 21 22 23 24 25 26 27 28 29 30 31 32 33 34 35 36 37 38 39 40 41 42 43 44 45 46 47 48 49 50
000
ASUS41 KRLX 042310
RWRRLX
West Virginia Regional Weather Roundup
National Weather Service Charleston WV
700 PM EDT SAT JUL 04 2015

Note: "fair" indicates few or no clouds below 12,000 feet with no
significant weather and/or obstructions to visibility.

WVZ003-050000-
Northern Panhandle of West Virginia

CITY           SKY/WX    TMP DP  RH WIND       PRES   REMARKS
WHEELING       SUNNY     76  58  53 W7        30.00S
$$

WVZ009-050000-
Northwest West Virginia

CITY           SKY/WX    TMP DP  RH WIND       PRES   REMARKS
PARKERSBURG    MOSUNNY   79  62  56 NW8       30.01S
$$

WVZ006-050000-
Western West Virginia

CITY           SKY/WX    TMP DP  RH WIND       PRES   REMARKS
HUNTINGTON     PTSUNNY   77  66  68 NE3       29.99S
$$

WVZ015-050000-
West Central West Virginia

CITY           SKY/WX    TMP DP  RH WIND       PRES   REMARKS
CHARLESTON     PTSUNNY   79  65  62 NW5       29.99F
$$

WVZ022-031-050000-
North Central West Virginia

CITY           SKY/WX    TMP DP  RH WIND       PRES   REMARKS
CLARKSBURG     MOSUNNY   77  62  59 NW6       30.00R
MORGANTOWN     MOSUNNY   80  57  45 NW6       30.00R
$$

WVZ025-035-042-045-050000-
Southern West Virginia

CITY           SKY/WX    TMP DP  RH WIND       PRES   REMARKS
BECKLEY        PTSUNNY   72  62  71 N5        30.07S
LOGAN            N/A     73  68  83 CALM      29.99S
BLUEFIELD      PTSUNNY   74  61  63 NW6       30.09S
LEWISBURG      PTSUNNY   76  61  58 N5        30.05S
$$

WVZ047-050000-
Northern Mountains of West Virginia

CITY           SKY/WX    TMP DP  RH WIND       PRES   REMARKS
ELKINS         PTSUNNY   73  61  65 NW5       30.04R
$$

WVZ052-050000-
Eastern Panhandle of West Virginia

CITY           SKY/WX    TMP DP  RH WIND       PRES   REMARKS
MARTINSBURG    MOSUNNY   76  66  71 N9        29.96R
PETERSBURG     PTSUNNY   80  59  48 NW5       29.97S
$$



USA.gov is the U.S. government's official web portal to all federal, state and local government web resources and services.